15min,AgWx,beryljct,423,10JUN2020:00:00:00,49.4,12.89,50.2,50.4,49.4,50.7,48.0,38,42,35,0.446,25.1,26.3,24.2,2.959,3.6,331,14,5.5,0.00013,0.00020,60.3,59.3,10,0,.,.,13.51,0.00,0.00
15min,AgWx,beryljct,423,10JUN2020:00:15:00,49.1,12.87,48.3,47.7,48.5,50.3,47.3,40,43,36,0.468,25.2,26.2,23.6,3.727,3.8,322,23,6.6,0.00013,0.00021,60.1,59.3,10,0,.,.,13.51,0.00,0.00
15min,AgWx,beryljct,423,10JUN2020:00:30:00,48.5,12.87,49.3,49.3,47.5,49.3,45.7,42,47,35,0.424,25.3,26.5,23.0,3.025,2.2,345,41,4.1,-0.00003,-0.00001,60.0,59.3,10,0,.,.,13.51,0.00,0.00
15min,AgWx,beryljct,423,10JUN2020:00:45:00,48.0,12.85,42.7,44.9,46.4,49.3,42.7,43,55,35,0.472,24.9,27.8,22.9,5.196,4.5,317,7.1,6.8,0.00016,0.00024,59.8,59.3,10,0,.,.,13.51,0.00,0.00
15min,AgWx,beryljct,423,10JUN2020:01:00:00,47.3,12.85,50.1,49.3,46.8,49.3,44.2,41,48,36,0.438,24.4,25.9,23.4,4.669,5.1,310,5.4,6.2,0.00021,0.00030,59.6,59.3,10,0,.,.,13.51,0.00,0.00
15min,AgWx,beryljct,423,10JUN2020:01:15:00,47.1,12.84,43.1,47.1,48.2,49.7,46.3,39,44,36,0.448,24.2,26.0,23.2,1.469,2.7,323,22,4.9,0.00004,0.00009,59.4,59.3,10,0,.,.,13.51,0.00,0.00
15min,AgWx,beryljct,423,10JUN2020:01:30:00,46.8,12.84,51.4,50.0,46.4,50.0,44.4,43,49,35,0.427,24.9,26.7,23.3,2.565,2.1,271,79,4.1,-0.00005,-0.00003,59.3,59.3,10,0,.,.,13.51,0.00,0.00
15min,AgWx,beryljct,423,10JUN2020:01:45:00,46.2,12.82,41.4,42.2,45.2,50.6,42.2,48,55,34,0.506,26.3,27.7,23.1,1.162,1.3,299,4.7,2.7,-0.00014,-0.00018,59.1,59.3,10,0,.,.,13.51,0.00,0.00
15min,AgWx,beryljct,423,10JUN2020:02:00:00,45.2,12.81,41.9,41.3,41.9,42.9,41.0,56,58,52,0.497,27.2,27.9,26.5,0.044,1.2,313,9.7,2.4,-0.00016,-0.00021,58.9,59.2,10,0,.,.,13.52,0.00,0.00
15min,AgWx,beryljct,423,10JUN2020:02:15:00,44.3,12.8,41.2,40.6,42.2,42.8,40.6,53,56,51,0.477,26.3,26.9,25.4,0,0.2,326,0.3,0.8,-0.00030,-0.00046,58.8,59.2,10,0,.,.,13.52,0.00,0.00
15min,AgWx,beryljct,423,10JUN2020:02:30:00,43.4,12.78,39.7,39.6,39.9,41.3,38.4,59,64,54,0.488,26.6,27.5,25.6,0,0.1,336,3.9,0.7,-0.00029,-0.00046,58.6,59.2,10,0,.,.,13.52,0.00,0.00
15min,AgWx,beryljct,423,10JUN2020:02:45:00,42.4,12.77,39.7,38.7,38.7,39.7,37.5,60,68,48,0.381,26.2,27.9,20.6,1.228,0.8,344,0.8,1.8,-0.00020,-0.00028,58.5,59.2,10,0,.,.,13.52,0.00,0.00
15min,AgWx,beryljct,423,10JUN2020:03:00:00,41.6,12.76,36.4,38.4,39.0,39.9,37.9,52,64,43,0.487,22.6,27.0,18.9,0.767,0.9,330,70,4.3,-0.00018,-0.00024,58.3,59.2,10,0,.,.,13.52,0.00,0.00
15min,AgWx,beryljct,423,10JUN2020:03:15:00,40.8,12.75,35.9,36.1,37.3,38.5,35.7,64,69,60,0.467,26.4,27.1,24.0,2.609,1.2,133,14,2.8,-0.00016,-0.00021,58.1,59.1,10,0,.,.,13.52,0.00,0.00
15min,AgWx,beryljct,423,10JUN2020:03:30:00,40.0,12.75,36.8,36.3,36.5,37.6,35.2,60,68,55,0.434,24.0,25.9,22.8,3.332,3.3,146,23,4.2,-0.00001,0.00001,57.9,59.1,10,0,.,.,13.52,0.00,0.00
15min,AgWx,beryljct,423,10JUN2020:03:45:00,39.2,12.74,36.0,34.6,35.1,36.5,33.5,61,68,51,0.424,23.0,24.5,19.4,1.491,2.5,193,15,3.7,-0.00005,-0.00005,57.7,59.1,10,0,.,.,13.52,0.00,0.00
15min,AgWx,beryljct,423,10JUN2020:04:00:00,38.4,12.72,36.8,36.0,35.0,36.0,34.0,55,65,47,0.354,20.5,23.5,17.1,1.6,1.6,158,22,2.9,-0.00010,-0.00012,57.6,59.1,10,0,.,.,13.52,0.00,0.00
15min,AgWx,beryljct,423,10JUN2020:04:15:00,38.0,12.71,34.1,35.4,36.1,36.9,34.9,57,65,50,0.451,22.2,24.6,19.2,2.433,2.1,208,22,3.0,-0.00007,-0.00007,57.4,59.1,10,0,.,.,13.53,0.00,0.00
15min,AgWx,beryljct,423,10JUN2020:04:30:00,37.5,12.7,35.5,35.0,33.9,35.2,32.7,68,80,58,0.400,24.4,27.4,21.7,0.417,1.8,297,26,2.8,0.00011,0.00019,57.3,59.0,10,0,.,.,13.52,0.00,0.00
15min,AgWx,beryljct,423,10JUN2020:04:45:00,37.1,12.69,35.3,33.7,34.4,35.3,33.2,60,69,56,0.434,22.0,24.1,20.6,2.214,1.1,318,29,2.4,0.00009,0.00015,57.1,59.0,10,0,.,.,13.52,0.00,0.00
15min,AgWx,beryljct,423,10JUN2020:05:00:00,36.7,12.7,32.6,33.0,34.5,35.8,32.6,62,70,50,0.421,22.7,25.0,19.0,1.885,2.4,327,44,3.9,0.00017,0.00029,57.0,58.9,10,1,.,.,13.52,0.00,0.00
15min,AgWx,beryljct,423,10JUN2020:05:15:00,36.4,12.69,31.9,31.2,32.3,34.9,31.0,73,82,61,0.480,24.7,26.3,21.7,1.03,2.1,71,8.3,3.5,0.00012,0.00019,56.8,58.9,11,4,.,.,13.53,0.00,0.00
15min,AgWx,beryljct,423,10JUN2020:05:30:00,35.9,12.7,31.8,31.6,32.0,32.3,31.2,72,81,66,0.395,23.9,26.0,21.4,2.017,1.2,68,9.5,2.2,0.00017,0.00022,56.7,58.9,10,26,.,.,13.53,0.00,0.00
15min,AgWx,beryljct,423,10JUN2020:05:45:00,36.1,12.72,35.9,34.9,32.7,34.9,31.2,68,70,65,0.448,23.3,25.4,21.4,1.578,1.4,131,42,2.0,0.00031,0.00039,56.5,58.8,11,59,.,.,13.53,0.00,0.00
15min,AgWx,beryljct,423,10JUN2020:06:00:00,37.2,12.7,35.7,35.2,35.3,35.7,34.9,69,72,65,0.488,26.0,27.3,24.4,1.929,2.5,164,15,3.7,0.00048,0.00060,56.3,58.8,10,95,.,.,13.52,0.00,0.00
15min,AgWx,beryljct,423,10JUN2020:06:15:00,39.1,12.7,38.5,37.9,36.5,37.9,35.2,68,71,65,0.503,27.1,27.9,26.5,1.6,1.9,153,8.3,2.5,0.00060,0.00072,56.2,58.8,10,134,.,.,13.52,0.00,0.00
15min,AgWx,beryljct,423,10JUN2020:06:30:00,41.6,12.69,43.3,42.7,40.4,42.8,37.9,55,64,49,0.460,25.3,27.0,24.2,2.017,1.3,155,11,2.0,0.00083,0.00097,56.1,58.7,10,176,.,.,13.52,0.00,0.00
15min,AgWx,beryljct,423,10JUN2020:06:45:00,44.8,12.7,46.6,46.1,44.6,46.1,42.8,49,55,46,0.584,26.8,30.9,25.1,2.061,1.9,142,14,2.8,0.00114,0.00136,55.9,58.7,10,222,.,.,13.52,0.00,0.00
15min,AgWx,beryljct,423,10JUN2020:07:00:00,47.9,12.71,48.1,47.6,46.8,47.8,45.8,47,55,43,0.504,27.8,30.9,26.0,2.433,2.2,117,14,2.9,0.00143,0.00170,55.8,58.6,10,271,.,.,13.51,0.00,0.00
15min,AgWx,beryljct,423,10JUN2020:07:15:00,50.8,12.73,51.0,50.0,48.7,50.0,47.6,45,47,42,0.536,28.1,29.5,26.4,1.885,2.3,117,12,3.3,0.00173,0.00206,55.7,58.6,10,321,.,.,13.51,0.00,0.00
15min,AgWx,beryljct,423,10JUN2020:07:30:00,53.7,12.75,52.4,52.5,51.1,52.7,50.0,43,45,41,0.558,29.5,30.6,28.6,1.381,1.0,116,20,2.5,0.00196,0.00219,55.7,58.5,10,371,.,.,13.51,0.00,0.00
15min,AgWx,beryljct,423,10JUN2020:07:45:00,56.7,12.78,55.8,54.7,53.4,54.7,52.4,37,42,33,0.524,27.5,29.8,25.5,0,0.5,350,44,2.6,0.00226,0.00247,55.6,58.5,10,421,.,.,13.51,0.00,0.00
15min,AgWx,beryljct,423,10JUN2020:08:00:00,59.5,12.86,56.2,56.1,55.5,56.4,54.5,34,37,32,0.496,27.9,29.6,26.4,1.907,1.3,337,51,3.8,0.00267,0.00301,55.6,58.4,10,470,.,.,13.51,0.00,0.00
15min,AgWx,beryljct,423,10JUN2020:08:15:00,61.8,13.04,58.5,58.1,57.0,58.1,55.9,31,33,30,0.515,27.0,28.0,26.4,4.077,2.4,17,25,4.7,0.00310,0.00360,55.6,58.4,10,521,.,.,13.50,0.00,0.00
15min,AgWx,beryljct,423,10JUN2020:08:30:00,63.8,13.19,59.6,59.9,59.1,60.0,58.2,30,32,29,0.528,27.6,29.3,26.8,2.828,2.9,21,25,5.7,0.00352,0.00413,55.6,58.4,11,570,.,.,13.50,0.00,0.00
15min,AgWx,beryljct,423,10JUN2020:08:45:00,65.5,13.48,63.0,61.9,61.3,62.6,59.9,28,30,27,0.522,28.2,29.8,27.1,3.135,3.6,42,27,6.3,0.00395,0.00470,55.7,58.3,10,617,.,.,13.49,0.00,0.00
15min,AgWx,beryljct,423,10JUN2020:09:00:00,67.2,13.76,63.0,63.6,63.1,64.2,62.0,27,28,25,0.515,28.2,29.8,27.1,2.499,4.7,43,25,7.8,0.00441,0.00535,55.9,58.3,10,663,.,.,13.49,0.00,0.00
15min,AgWx,beryljct,423,10JUN2020:09:15:00,68.9,13.9,65.5,65.4,64.3,65.8,63.0,26,27,25,0.560,28.9,30.7,27.0,5.261,4.1,56,25,8.0,0.00468,0.00558,56.0,58.2,10,707,.,.,13.49,0.00,0.00
15min,AgWx,beryljct,423,10JUN2020:09:30:00,70.2,14.08,66.8,67.0,65.8,67.2,64.7,25,26,24,0.548,29.1,30.8,27.8,6.73,5.9,38,29,9.6,0.00517,0.00634,56.2,58.2,10,748,.,.,13.48,0.00,0.00
15min,AgWx,beryljct,423,10JUN2020:09:45:00,71.4,14.13,67.5,68.6,67.8,69.4,66.4,24,25,22,0.553,29.3,31.7,28.0,9.58,6.4,31,25,10.9,0.00559,0.00690,56.5,58.1,10,788,.,.,13.48,0.00,0.00
15min,AgWx,beryljct,423,10JUN2020:10:00:00,72.6,14.1,71.3,69.6,68.8,70.4,67.2,23,24,22,0.566,29.3,31.2,27.9,3.551,6.2,51,20,11.3,0.00587,0.00720,56.7,58.1,10,825,.,.,13.48,0.00,0.00
15min,AgWx,beryljct,423,10JUN2020:10:15:00,73.8,14.03,69.3,69.7,69.8,71.3,68.4,22,23,21,0.553,29.3,31.7,28.0,3.244,6.4,24,22,11.2,0.00615,0.00755,57.0,58.1,10,859,.,.,13.48,0.00,0.00
15min,AgWx,beryljct,423,10JUN2020:10:30:00,74.9,14.03,72.7,70.6,70.9,72.3,69.7,21,23,20,0.536,29.4,32.0,28.0,5.875,6.6,31,22,11.9,0.00645,0.00791,57.3,58.1,10,891,.,.,13.47,0.00,0.00
15min,AgWx,beryljct,423,10JUN2020:10:45:00,75.9,13.99,70.7,72.3,71.4,72.8,69.7,21,22,20,0.546,29.5,31.7,27.7,5.59,5.8,67,45,12.3,0.00658,0.00795,57.7,58.1,10,920,.,.,13.47,0.00,0.00
15min,AgWx,beryljct,423,10JUN2020:11:00:00,77.1,13.97,72.8,72.5,73.1,75.0,71.0,20,23,19,0.540,30.3,33.3,28.2,6.423,5.1,81,45,10.6,0.00680,0.00812,58.0,58.1,10,947,.,.,13.47,0.00,0.00
15min,AgWx,beryljct,423,10JUN2020:11:15:00,77.8,13.96,71.1,72.5,72.9,73.7,72.0,20,21,18,0.493,29.1,31.4,26.4,1.403,5.2,74,30,9.8,0.00694,0.00829,58.4,58.0,10,970,.,.,13.47,0.00,0.00
15min,AgWx,beryljct,423,10JUN2020:11:30:00,78.6,13.94,73.6,73.3,73.6,75.0,72.0,19,20,18,0.509,28.5,30.4,26.5,1.337,4.8,67,53,9.6,0.00707,0.00838,58.8,58.0,10,990,.,.,13.47,0.00,0.00
15min,AgWx,beryljct,423,10JUN2020:11:45:00,79.4,13.99,75.0,73.9,74.5,77.0,73.1,18,20,17,0.516,28.6,32.7,25.6,0.855,3.7,48,70,9.5,0.00710,0.00824,59.2,58.0,10,1005,.,.,13.47,0.00,0.00
15min,AgWx,beryljct,423,10JUN2020:12:00:00,80.2,13.54,76.7,74.4,74.7,75.9,73.5,18,19,17,0.507,27.9,30.0,26.3,5.415,4.9,32,53,11.3,0.00733,0.00869,59.6,58.0,10,1019,.,.,13.47,0.00,0.00
15min,AgWx,beryljct,423,10JUN2020:12:15:00,81.0,13.46,74.6,75.1,75.3,77.8,73.7,17,22,15,0.453,27.0,34.3,23.3,4.713,5.1,30,61,12.8,0.00743,0.00885,60.0,58.1,10,1025,.,.,13.47,0.00,0.00
15min,AgWx,beryljct,423,10JUN2020:12:30:00,81.7,13.48,76.8,77.1,75.5,77.1,74.5,16,17,15,0.518,25.9,28.8,23.8,6.292,2.9,88,49,8.7,0.00719,0.00822,60.5,58.1,10,1029,.,.,13.47,0.00,0.00
15min,AgWx,beryljct,423,10JUN2020:12:45:00,82.4,13.55,77.3,77.6,76.4,78.4,74.8,16,20,14,0.455,27.0,33.1,23.5,6.862,5.5,7.2,56,11.4,0.00757,0.00907,60.9,58.1,10,1030,.,.,13.47,0.00,0.00
15min,AgWx,beryljct,423,10JUN2020:13:00:00,82.9,13.45,76.3,77.9,76.8,78.5,75.9,14,17,13,0.477,24.5,28.4,21.9,7.804,4.9,86,55,10.1,0.00753,0.00896,61.4,58.1,10,1028,.,.,13.47,0.00,0.00
15min,AgWx,beryljct,423,10JUN2020:13:15:00,83.1,13.48,76.9,76.4,77.4,78.9,75.8,14,16,12,0.387,24.9,28.5,20.9,3.793,7.7,61,23,13.0,0.00790,0.00983,61.9,58.1,10,1023,.,.,13.47,0.00,0.00
15min,AgWx,beryljct,423,10JUN2020:13:30:00,83.5,13.44,81.2,78.8,77.7,79.2,76.4,13,14,13,0.473,23.4,26.1,21.3,5.239,3.7,94,45,7.6,0.00730,0.00853,62.3,58.2,10,1011,.,.,13.47,0.00,0.00
15min,AgWx,beryljct,423,10JUN2020:13:45:00,83.6,13.45,78.9,76.5,77.7,79.7,76.4,17,22,13,0.402,28.8,35.7,21.4,0,7.0,322,20,12.7,0.00764,0.00942,62.8,58.2,10,997,.,.,13.47,0.00,0.00
15min,AgWx,beryljct,423,10JUN2020:14:00:00,83.3,13.45,78.5,78.9,77.4,79.8,76.1,13,16,12,0.416,23.1,28.2,20.4,6.511,3.7,270,67,8.7,0.00705,0.00826,63.2,58.3,10,979,.,.,13.47,0.00,0.00
15min,AgWx,beryljct,423,10JUN2020:14:15:00,83.8,13.38,79.5,78.8,78.5,80.1,76.9,12,13,11,0.406,22.0,24.1,19.6,0.351,3.3,196,49,8.3,0.00693,0.00809,63.6,58.3,10,959,.,.,13.47,0.00,0.00
15min,AgWx,beryljct,423,10JUN2020:14:30:00,84.5,13.39,79.7,79.2,78.4,80.3,77.1,12,13,11,0.435,22.1,25.1,20.1,8.13,4.0,42,54,8.6,0.00685,0.00811,64.0,58.4,10,937,.,.,13.47,0.00,0.00
15min,AgWx,beryljct,423,10JUN2020:14:45:00,85.3,13.35,76.4,78.3,78.6,80.1,77.4,12,13,12,0.396,22.4,25.1,20.8,2.916,4.4,101,68,10.2,0.00674,0.00809,64.4,58.5,10,908,.,.,13.46,0.00,0.00
15min,AgWx,beryljct,423,10JUN2020:15:00:00,86.0,13.38,78.4,79.5,79.5,81.7,77.4,13,14,11,0.387,23.5,28.1,20.7,7.147,4.6,238,97,15.2,0.00659,0.00795,64.8,58.5,10,879,.,.,13.47,0.00,0.00
15min,AgWx,beryljct,423,10JUN2020:15:15:00,87.0,13.3,77.4,79.1,79.8,80.9,78.1,12,13,11,0.380,22.6,24.9,20.5,4.012,3.4,140,63,9.6,0.00617,0.00731,65.1,58.6,10,844,.,.,13.47,0.00,0.00
15min,AgWx,beryljct,423,10JUN2020:15:30:00,87.6,13.3,78.1,78.8,79.3,81.0,78.5,12,13,11,0.387,22.0,25.2,20.1,6.818,4.5,47,43,9.9,0.00584,0.00713,65.4,58.7,10,778,.,.,13.47,0.00,0.00
15min,AgWx,beryljct,423,10JUN2020:15:45:00,87.4,13.33,80.2,79.0,79.4,80.5,78.5,12,16,11,0.398,23.1,29.2,20.4,8.55,7.8,8.9,27,12.8,0.00626,0.00815,65.8,58.8,10,755,.,.,13.47,0.00,0.00
15min,AgWx,beryljct,423,10JUN2020:16:00:00,87.0,13.33,79.0,78.5,79.2,80.1,78.5,12,12,11,0.376,21.5,23.1,20.1,4.911,6.3,9.3,20,11.9,0.00583,0.00746,66.1,58.8,10,729,.,.,13.47,0.00,0.00
15min,AgWx,beryljct,423,10JUN2020:16:15:00,87.1,13.31,78.8,79.6,79.5,80.7,78.6,11,12,11,0.392,21.4,24.0,19.8,1.622,3.9,27,42,7.5,0.00509,0.00625,66.3,58.9,10,686,.,.,13.47,0.00,0.00
15min,AgWx,beryljct,423,10JUN2020:16:30:00,87.5,13.35,80.7,80.3,79.9,80.7,79.2,12,13,11,0.408,22.0,25.9,20.2,3.091,4.1,235,50,9.3,0.00472,0.00590,66.5,59.0,10,627,.,.,13.47,0.00,0.00
15min,AgWx,beryljct,423,10JUN2020:16:45:00,87.6,13.33,79.8,79.7,79.8,80.8,78.9,12,15,11,0.497,23.5,28.7,20.3,3.354,2.8,335,48,5.7,0.00422,0.00511,66.7,59.1,10,599,.,.,13.47,0.00,0.00
15min,AgWx,beryljct,423,10JUN2020:17:00:00,87.2,13.33,78.8,79.0,79.4,80.1,78.8,13,17,11,0.394,24.0,30.8,20.8,0.68,5.4,336,33,10.1,0.00442,0.00579,66.9,59.2,10,551,.,.,13.47,0.00,0.00
15min,AgWx,beryljct,423,10JUN2020:17:15:00,86.8,13.35,79.3,79.1,79.6,80.3,79.0,12,14,12,0.400,22.7,26.3,21.4,1.03,4.5,340,32,8.3,0.00388,0.00506,67.0,59.3,10,502,.,.,13.47,0.00,0.00
15min,AgWx,beryljct,423,10JUN2020:17:30:00,86.4,13.32,80.1,79.0,79.5,80.3,78.9,12,13,11,0.409,22.1,25.0,21.0,3.617,3.7,46,41,8.4,0.00332,0.00431,67.1,59.4,10,450,.,.,13.47,0.00,0.00
15min,AgWx,beryljct,423,10JUN2020:17:45:00,86.2,13.19,80.1,79.7,79.5,80.1,78.9,12,16,12,0.542,23.3,29.4,21.3,4.56,3.4,69,77,6.2,0.00287,0.00377,67.2,59.4,10,399,.,.,13.47,0.00,0.00
15min,AgWx,beryljct,423,10JUN2020:18:00:00,85.6,13.13,78.5,79.4,79.2,79.9,78.8,13,16,12,0.428,23.9,28.9,22.3,3.902,3.6,355,30,6.7,0.00257,0.00350,67.3,59.5,10,349,.,.,13.47,0.00,0.00
15min,AgWx,beryljct,423,10JUN2020:18:15:00,85.1,13.1,78.7,78.9,79.0,79.4,78.8,13,15,12,0.508,24.4,27.9,22.4,3.332,3.4,360,32,5.7,0.00214,0.00298,67.3,59.6,10,300,.,.,13.47,0.00,0.00
15min,AgWx,beryljct,423,10JUN2020:18:30:00,84.5,13.09,78.6,78.8,78.9,79.2,78.6,14,16,12,0.411,24.8,29.5,22.4,1.535,2.2,6.8,65,4.5,0.00148,0.00206,67.3,59.7,10,251,.,.,13.47,0.00,0.00
15min,AgWx,beryljct,423,10JUN2020:18:45:00,83.8,13.07,78.1,78.1,78.6,79.1,78.1,13,15,12,0.483,24.5,27.6,22.0,3.595,3.3,46,15,6.2,0.00140,0.00217,67.3,59.8,10,202,.,.,13.47,0.00,0.00
15min,AgWx,beryljct,423,10JUN2020:19:00:00,82.9,13.05,77.4,77.4,77.8,78.4,76.9,15,16,13,0.481,26.0,28.6,23.0,2.85,3.6,26,8.6,6.0,0.00090,0.00134,67.3,59.9,10,159,.,.,13.47,0.00,0.00
15min,AgWx,beryljct,423,10JUN2020:19:15:00,81.7,13.06,76.7,76.6,76.9,77.8,76.4,16,17,14,0.503,27.0,28.9,24.7,2.017,2.6,27,5.8,4.0,0.00053,0.00083,67.2,60.0,10,106,.,.,13.48,0.00,0.00
15min,AgWx,beryljct,423,10JUN2020:19:30:00,79.5,13.05,73.3,73.4,75.4,76.8,73.4,18,24,14,0.633,28.6,34.7,23.9,0,0.6,38,1.2,2.0,-0.00018,-0.00025,67.1,60.1,10,45,.,.,13.48,0.00,0.00
15min,AgWx,beryljct,423,10JUN2020:19:45:00,77.2,13.04,70.9,74.4,74.5,75.3,73.4,18,22,15,0.531,27.6,32.5,24.8,1.03,0.0,46,1.8,1.0,-0.00043,-0.00068,67.0,60.1,10,32,.,.,13.48,0.00,0.00
15min,AgWx,beryljct,423,10JUN2020:20:00:00,74.5,13.03,61.5,62.6,70.2,74.3,62.6,22,33,16,0.632,28.7,34.6,24.9,2.324,1.4,174,73,3.2,-0.00012,-0.00013,66.9,60.2,10,5,.,.,13.48,0.00,0.00
15min,AgWx,beryljct,423,10JUN2020:20:15:00,71.2,13.02,71.7,71.3,65.1,71.3,61.2,24,32,16,0.422,26.9,32.6,22.9,3.288,2.9,219,16,3.6,0.00016,0.00028,66.7,60.3,10,1,.,.,13.49,0.01,0.00
15min,AgWx,beryljct,423,10JUN2020:20:30:00,68.3,13.01,58.6,57.6,62.0,71.6,57.0,30,38,16,0.552,29.3,32.3,23.0,3.266,3.1,229,8.5,3.6,0.00017,0.00029,66.6,60.4,10,0,.,.,13.49,0.00,0.00
15min,AgWx,beryljct,423,10JUN2020:20:45:00,65.6,13,56.9,57.6,59.2,60.7,57.6,30,34,25,0.534,27.7,29.5,24.5,3.88,4.0,214,16,5.8,0.00025,0.00039,66.4,60.4,10,0,.,.,13.49,0.01,0.00
15min,AgWx,beryljct,423,10JUN2020:21:00:00,63.6,12.98,63.9,62.2,59.0,62.3,54.9,29,41,22,0.493,26.5,32.1,22.1,3.047,3.3,179,54,6.5,0.00018,0.00030,66.1,60.5,10,0,.,.,13.49,0.00,0.00
15min,AgWx,beryljct,423,10JUN2020:21:15:00,62.1,12.98,58.1,58.4,59.4,62.6,56.5,34,41,26,0.613,30.6,33.7,26.2,6.27,5.4,141,17,7.9,0.00037,0.00053,65.9,60.6,10,0,.,.,13.50,0.00,0.00
15min,AgWx,beryljct,423,10JUN2020:21:30:00,60.9,12.97,59.9,58.7,57.9,60.5,56.8,35,39,30,0.505,30.4,33.1,27.4,3.924,5.1,193,16,6.2,0.00033,0.00048,65.7,60.6,10,0,.,.,13.49,0.00,0.00
15min,AgWx,beryljct,423,10JUN2020:21:45:00,59.8,12.97,54.4,53.6,56.3,60.5,53.1,35,43,26,0.531,28.6,31.2,25.6,2.368,2.7,172,23,3.9,0.00007,0.00014,65.5,60.6,10,0,.,.,13.50,0.01,0.00
15min,AgWx,beryljct,423,10JUN2020:22:00:00,58.5,12.95,51.8,52.4,54.3,58.8,52.4,37,43,26,0.502,28.1,30.9,23.5,5.875,4.8,253,58,8.1,0.00026,0.00038,65.2,60.7,10,0,.,.,13.50,0.00,0.00
15min,AgWx,beryljct,423,10JUN2020:22:15:00,57.4,12.95,54.7,50.3,52.5,54.3,49.4,37,48,34,0.544,27.2,30.3,25.4,3.617,4.6,324,42,6.5,0.00023,0.00035,65.0,60.7,10,0,.,.,13.50,0.00,0.00
15min,AgWx,beryljct,423,10JUN2020:22:30:00,56.6,12.94,57.7,57.5,56.1,58.1,50.8,29,42,25,0.418,24.2,28.5,22.4,3.902,3.7,6.6,27,6.0,0.00021,0.00034,64.7,60.8,10,0,.,.,13.50,0.00,0.00
15min,AgWx,beryljct,423,10JUN2020:22:45:00,56.2,12.93,52.8,51.5,52.8,57.6,49.9,33,39,25,0.422,24.0,25.9,22.4,4.319,4.2,335,8.1,5.0,0.00023,0.00035,64.5,60.8,10,0,.,.,13.50,0.00,0.00
15min,AgWx,bigpiney,439,10JUN2020:00:00:00,40.7,12.69,36.8,36.4,37.8,38.7,36.4,81,83,77,0.604,32.4,33.1,30.6,2.784,1.9,205,31,3.6,-0.00001,-0.00001,49.0,46.2,55,0,0,0.0,7.20,0.00,0.00
15min,AgWx,bigpiney,439,10JUN2020:00:15:00,40.1,12.68,36.9,36.7,37.6,38.4,36.4,83,86,80,0.618,32.9,34.5,31.7,4.297,3.8,190,19,4.6,0.00002,0.00004,48.9,46.2,55,0,0,0.0,7.20,0.00,0.00
15min,AgWx,bigpiney,439,10JUN2020:00:30:00,39.5,12.67,37.5,38.1,38.5,41.8,36.1,80,87,71,0.621,32.9,33.8,31.9,3.793,3.1,231,19,4.8,0.00002,0.00004,48.8,46.3,55,0,0,0.0,7.20,0.00,0.00
15min,AgWx,bigpiney,439,10JUN2020:00:45:00,39.2,12.66,36.2,36.7,37.2,37.9,36.5,84,86,80,0.619,32.7,33.2,32.3,2.653,2.8,39,64,6.6,0.00000,0.00001,48.7,46.2,55,0,0,0.0,7.20,0.00,0.00
15min,AgWx,bigpiney,439,10JUN2020:01:00:00,39.0,12.66,39.9,38.8,37.6,38.8,36.4,83,86,79,0.640,32.8,33.2,32.3,0.592,2.0,262,7.6,4.6,-0.00002,-0.00001,48.6,46.2,55,0,0,0.0,7.20,0.00,0.00
15min,AgWx,bigpiney,439,10JUN2020:01:15:00,38.8,12.65,36.5,36.4,38.2,39.9,36.4,80,83,76,0.606,32.5,33.2,31.7,3.244,2.5,258,15,5.3,0.00001,0.00002,48.5,46.2,55,0,0,0.0,7.20,0.00,0.00
15min,AgWx,bigpiney,439,10JUN2020:01:30:00,38.5,12.64,34.7,34.9,37.5,40.5,34.5,80,88,72,0.595,31.9,33.4,29.1,3.354,2.9,223,29,6.0,0.00002,0.00003,48.4,46.2,55,0,0,0.0,7.20,0.00,0.00
15min,AgWx,bigpiney,439,10JUN2020:01:45:00,38.1,12.63,39.4,39.0,37.2,39.2,34.8,82,88,77,0.625,32.1,33.1,31.2,0,3.2,240,38,5.5,0.00002,0.00003,48.3,46.3,55,0,0,0.0,7.20,0.00,0.00
15min,AgWx,bigpiney,439,10JUN2020:02:00:00,37.9,12.62,36.6,37.8,37.8,39.1,36.7,79,82,77,0.599,32.1,32.6,31.4,4.231,2.5,341,70,5.7,0.00001,0.00002,48.2,46.2,55,0,0,0.0,7.20,0.00,0.00
15min,AgWx,bigpiney,439,10JUN2020:02:15:00,37.8,12.61,37.2,36.7,36.8,38.4,36.0,82,84,78,0.604,31.7,32.8,30.9,1.863,1.9,269,42,4.4,-0.00002,-0.00001,48.1,46.2,55,0,0,0.0,7.20,0.00,0.00
15min,AgWx,bigpiney,439,10JUN2020:02:30:00,37.6,12.61,38.7,38.4,36.9,38.4,36.5,82,84,81,0.640,32.1,33.2,31.6,1.118,1.8,264,61,3.3,-0.00002,-0.00002,48.0,46.3,55,0,0,0.0,7.20,0.00,0.00
15min,AgWx,bigpiney,439,10JUN2020:02:45:00,37.4,12.6,36.3,38.4,38.2,39.7,37.2,79,82,76,0.606,32.4,33.0,31.7,4.516,1.2,272,29,4.5,-0.00004,-0.00005,48.0,46.3,55,0,0,0.0,7.20,0.00,0.00
15min,AgWx,bigpiney,439,10JUN2020:03:00:00,37.2,12.59,33.0,33.0,34.8,38.1,32.9,85,89,77,0.556,30.8,32.0,29.6,4.012,2.9,234,19,4.7,-0.00000,0.00001,47.8,46.3,55,0,0,0.0,7.20,0.00,0.00
15min,AgWx,bigpiney,439,10JUN2020:03:15:00,36.7,12.58,32.0,32.4,33.4,35.7,32.1,88,93,83,0.552,30.3,32.6,29.3,1.184,3.0,211,27,4.9,-0.00001,-0.00001,47.8,46.2,55,0,0,0.0,7.20,0.00,0.00
15min,AgWx,bigpiney,439,10JUN2020:03:30:00,36.1,12.57,32.1,32.3,32.6,33.7,32.1,90,92,88,0.547,30.1,31.6,29.3,2.499,0.6,172,23,2.8,-0.00006,-0.00009,47.6,46.3,55,0,0,0.0,7.20,0.00,0.00
15min,AgWx,bigpiney,439,10JUN2020:03:45:00,35.5,12.55,32.9,32.5,33.7,34.8,32.1,89,93,86,0.547,30.7,31.8,29.2,2.455,1.9,272,42,3.1,-0.00003,-0.00004,47.5,46.3,55,0,0,0.0,7.20,0.00,0.00
15min,AgWx,bigpiney,439,10JUN2020:04:00:00,35.2,12.54,33.7,33.4,33.1,34.0,31.8,90,92,88,0.581,30.5,31.4,29.0,1.82,3.4,264,25,5.5,-0.00001,-0.00001,47.4,46.2,55,0,0,0.0,7.20,0.00,0.00
15min,AgWx,bigpiney,439,10JUN2020:04:15:00,35.0,12.53,31.3,31.5,32.8,33.5,31.5,90,91,87,0.537,30.1,31.0,28.5,3.508,3.0,220,20,5.2,-0.00002,-0.00002,47.3,46.2,55,0,0,0.0,7.20,0.00,0.00
15min,AgWx,bigpiney,439,10JUN2020:04:30:00,34.8,12.52,31.9,31.7,31.9,32.6,31.1,90,92,89,0.546,29.3,30.2,28.5,1.688,3.6,222,12,4.6,-0.00001,-0.00001,47.2,46.3,55,1,0,0.0,7.20,0.00,0.00
15min,AgWx,bigpiney,439,10JUN2020:04:45:00,34.6,12.5,31.9,31.8,31.6,31.8,31.3,91,92,90,0.551,29.3,29.6,29.0,1.644,2.8,227,21,4.9,-0.00002,-0.00002,47.1,46.2,55,4,0,0.0,7.20,0.00,0.00
15min,AgWx,bigpiney,439,10JUN2020:05:00:00,34.4,12.51,33.5,33.5,32.4,33.7,31.0,91,93,89,0.581,30.1,31.1,28.5,3.157,3.7,154,17,6.1,-0.00026,-0.00024,47.0,46.2,55,18,0,0.0,7.20,0.00,0.00
15min,AgWx,bigpiney,439,10JUN2020:05:15:00,34.5,12.52,33.0,32.5,32.8,33.6,32.2,91,92,89,0.571,30.4,31.0,29.9,2.061,3.0,191,11,3.9,-0.00017,-0.00014,46.9,46.2,55,45,0,0.0,7.20,0.00,0.00
15min,AgWx,bigpiney,439,10JUN2020:05:30:00,34.8,12.54,34.4,33.9,33.6,34.4,32.6,90,92,88,0.597,31.1,31.7,30.4,1.337,2.9,209,10,4.8,-0.00005,-0.00002,46.8,46.2,55,75,0,0.0,7.20,0.00,0.00
15min,AgWx,bigpiney,439,10JUN2020:05:45:00,35.7,12.54,36.0,35.4,34.8,35.4,34.0,91,91,90,0.629,32.3,32.9,31.5,2.894,2.1,243,27,3.6,0.00008,0.00011,46.7,46.2,55,108,0,0.0,7.20,0.00,0.00
15min,AgWx,bigpiney,439,10JUN2020:06:00:00,36.9,12.57,38.0,37.1,36.0,37.1,35.5,89,91,89,0.667,33.3,34.2,32.6,1.403,2.4,230,9.8,4.1,0.00026,0.00031,46.7,46.1,55,146,0,0.0,7.20,0.00,0.00
15min,AgWx,bigpiney,439,10JUN2020:06:15:00,38.6,12.56,41.2,40.1,38.7,40.1,37.3,88,90,87,0.743,35.5,36.9,34.3,0,1.7,229,12,3.8,0.00048,0.00053,46.6,46.2,55,188,0,0.0,7.20,0.00,0.00
15min,AgWx,bigpiney,439,10JUN2020:06:30:00,40.6,12.61,41.5,41.7,41.4,42.1,40.3,83,89,80,0.721,36.7,37.4,35.9,2.543,0.8,51,26,3.6,0.00074,0.00081,46.4,46.1,55,234,0,0.0,7.20,0.00,0.00
15min,AgWx,bigpiney,439,10JUN2020:06:45:00,42.7,12.62,42.4,42.3,41.9,42.5,41.6,81,84,80,0.732,36.7,37.6,36.1,0.153,1.5,71,22,3.1,0.00100,0.00111,46.4,46.1,55,282,0,0.0,7.20,0.00,0.00
15min,AgWx,bigpiney,439,10JUN2020:07:00:00,44.7,12.65,43.8,43.7,43.2,44.3,42.2,80,82,77,0.751,37.4,38.8,36.5,1.863,0.6,135,46,2.3,0.00128,0.00138,46.3,46.1,55,328,0,0.0,7.20,0.00,0.00
15min,AgWx,bigpiney,439,10JUN2020:07:15:00,46.6,12.72,45.7,45.2,44.6,45.2,43.7,79,82,74,0.790,38.4,40.0,37.0,3.749,2.5,103,20,5.2,0.00155,0.00173,46.2,46.1,55,378,0,0.0,7.20,0.00,0.00
15min,AgWx,bigpiney,439,10JUN2020:07:30:00,48.1,12.94,46.3,46.2,45.6,46.2,45.2,76,79,73,0.794,38.5,39.5,37.8,7.059,4.7,107,14,7.1,0.00181,0.00207,46.1,46.1,55,427,0,0.0,7.20,0.00,0.00
15min,AgWx,bigpiney,439,10JUN2020:07:45:00,49.4,13.33,47.1,47.6,46.9,47.7,46.0,74,77,70,0.823,38.9,40.8,37.7,3.858,4.7,98,16,8.0,0.00210,0.00241,46.0,46.0,55,475,0,0.0,7.20,0.00,0.00
15min,AgWx,bigpiney,439,10JUN2020:08:00:00,50.7,13.64,49.5,48.4,48.0,48.7,47.6,71,74,68,0.785,39.1,40.4,38.0,5.174,4.8,105,15,7.2,0.00242,0.00276,45.9,46.1,55,525,0,0.0,7.20,0.00,0.00
15min,AgWx,bigpiney,439,10JUN2020:08:15:00,52.0,13.51,48.6,48.9,49.1,50.2,48.3,67,72,63,0.792,38.5,40.4,37.0,4.932,4.6,86,21,7.7,0.00247,0.00284,45.9,46.1,55,499,0,0.0,7.20,0.00,0.00
15min,AgWx,bigpiney,439,10JUN2020:08:30:00,53.0,14.42,50.2,50.3,49.4,50.6,48.4,66,69,62,0.789,38.4,39.8,37.2,7.804,4.8,95,15,9.3,0.00267,0.00307,45.8,46.1,55,544,0,0.0,7.20,0.00,0.00
15min,AgWx,bigpiney,439,10JUN2020:08:45:00,54.6,14.34,51.0,51.9,51.0,52.0,50.2,62,66,58,0.815,38.6,40.2,37.0,5.02,5.0,91,19,8.3,0.00452,0.00508,45.7,46.0,55,887,0,0.0,7.20,0.00,0.00
15min,AgWx,bigpiney,439,10JUN2020:09:00:00,56.5,14.4,51.6,51.3,51.5,52.6,50.7,61,66,56,0.786,38.4,41.3,35.9,4.209,4.1,97,25,8.4,0.00313,0.00357,45.7,46.0,55,590,0,0.0,7.20,0.00,0.00
15min,AgWx,bigpiney,439,10JUN2020:09:15:00,57.4,14.34,52.0,51.9,51.2,52.0,50.7,59,62,55,0.769,37.3,39.1,35.7,6.27,4.6,100,14,8.0,0.00237,0.00281,45.7,46.0,55,413,0,0.0,7.20,0.00,0.00